Weather History for KGPZ - April, 2013

Change the Weather History Date:

Tuesday, April 9, 2013

  Actual Average Record
Temperature  
Mean Temperature 26 °F -  
Max Temperature 35 °F 48 °F - (-1)
Min Temperature 17 °F 25 °F - (-1)
Degree Days  
Heating Degree Days 39    
Moisture  
Dew Point 15 °F    
Average Humidity 59    
Maximum Humidity 74    
Minimum Humidity 44    
Precipitation  
Precipitation 0.00 in - - ()
Sea Level Pressure  
Sea Level Pressure 30.19 in    
Wind  
Wind Speed 12 mph (North)    
Max Wind Speed 17 mph    
Max Gust Speed 24 mph    
Visibility 10 miles    
Events      
Averages and records for this station are not official NWS values.
T = Trace of Precipitation, MM = Missing Value Source: NWS Daily Summary

Daily Weather History Graph

Daily Weather History Graph

Search for Another Location

Airport or City:

Trip Planner

Search our weather history database for the weather conditions in past years. The results will help you decide how hot, cold, wet, or windy it might be!

Date:

Astronomy

Apr. 09, 2013 Rise Set
Actual Time 6:36 AM CDT 7:55 PM CDT
Civil Twilight 6:05 AM CDT 8:26 PM CDT
Nautical Twilight 5:27 AM CDT 9:04 PM CDT
Astronomical Twilight 4:46 AM CDT 9:45 PM CDT
Moon 6:01 AM CDT (4/9) 7:31 PM CDT (4/9)
Length of Visible Light 14h 21m
Length of Day
13h 18m
Waning Crescent, 1% of the Moon is Illuminated
Apr 9
Waning Crescent
Apr 10
New
Apr 18
First Quarter
Apr 25
Full
May 2
Last Quarter

Hourly Weather History & Observations

Time (CDT) Temp. Windchill Dew Point Humidity Pressure Visibility Wind Dir Wind Speed Gust Speed Precip Events Conditions
12:15 AM 32.0 °F 23.0 °F 19.4 °F 60% 30.13 in 10.0 mi NW 11.5 mph - N/A   Overcast
12:35 AM 30.2 °F 21.3 °F 21.2 °F 69% 30.12 in 10.0 mi NNW 10.4 mph - N/A   Overcast
12:55 AM 30.2 °F 20.8 °F 19.4 °F 64% 30.13 in 10.0 mi NW 11.5 mph - N/A   Overcast
1:15 AM 30.2 °F 20.8 °F 19.4 °F 64% 30.13 in 10.0 mi NNW 11.5 mph - N/A   Overcast
1:35 AM 30.2 °F 21.3 °F 19.4 °F 64% 30.13 in 10.0 mi NW 10.4 mph - N/A   Overcast
1:55 AM 28.4 °F 18.0 °F 19.4 °F 69% 30.13 in 10.0 mi NNW 12.7 mph - N/A   Overcast
2:15 AM 28.4 °F 17.5 °F 15.8 °F 59% 30.11 in 10.0 mi NNW 13.8 mph - N/A   Overcast
2:35 AM 26.6 °F 16.2 °F 17.6 °F 69% 30.09 in 10.0 mi NNW 11.5 mph - N/A   Overcast
2:55 AM 28.4 °F 18.5 °F 17.6 °F 64% 30.13 in 10.0 mi NNW 11.5 mph - N/A   Overcast
3:15 AM 28.4 °F 19.7 °F 17.6 °F 64% 30.14 in 10.0 mi NW 9.2 mph - N/A   Overcast
3:35 AM 26.6 °F 15.7 °F 15.8 °F 64% 30.13 in 10.0 mi NW 12.7 mph - N/A   Overcast
3:55 AM 24.8 °F 13.4 °F 14.0 °F 64% 30.13 in 10.0 mi NW 12.7 mph - N/A   Mostly Cloudy
4:15 AM 24.8 °F 11.9 °F 15.8 °F 69% 30.13 in 10.0 mi NW 16.1 mph - N/A   Mostly Cloudy
4:35 AM 23.0 °F 10.6 °F 14.0 °F 68% 30.14 in 10.0 mi NNW 13.8 mph - N/A   Mostly Cloudy
4:55 AM 21.2 °F 7.8 °F 12.2 °F 68% 30.14 in 10.0 mi NW 15.0 mph - N/A   Clear
5:15 AM 21.2 °F 6.8 °F 12.2 °F 68% 30.14 in 10.0 mi NW 17.3 mph 20.7 mph N/A   Clear
5:35 AM 21.2 °F 6.8 °F 12.2 °F 68% 30.14 in 10.0 mi NNW 17.3 mph - N/A   Clear
5:55 AM 19.4 °F 4.5 °F 10.4 °F 68% 30.15 in 10.0 mi NNW 17.3 mph - N/A   Clear
6:15 AM 19.4 °F 6.0 °F 12.2 °F 74% 30.17 in 10.0 mi NNW 13.8 mph 18.4 mph N/A   Clear
6:35 AM 19.4 °F 5.5 °F 10.4 °F 68% 30.18 in 10.0 mi NNW 15.0 mph - N/A   Clear
6:55 AM 19.4 °F 5.5 °F 10.4 °F 68% 30.18 in 10.0 mi NNW 15.0 mph - N/A   Clear
7:15 AM 17.6 °F 5.0 °F 10.4 °F 73% 30.19 in 10.0 mi North 11.5 mph - N/A   Clear
7:35 AM 17.6 °F 3.7 °F 10.4 °F 73% 30.20 in 10.0 mi NNW 13.8 mph - N/A   Clear
7:55 AM 17.6 °F 3.7 °F 10.4 °F 73% 30.21 in 10.0 mi North 13.8 mph - N/A   Clear
8:15 AM 17.6 °F 5.0 °F 10.4 °F 73% 30.21 in 10.0 mi North 11.5 mph - N/A   Clear
8:35 AM 17.6 °F 5.7 °F 10.4 °F 73% 30.21 in 10.0 mi NNW 10.4 mph - N/A   Clear
8:55 AM 19.4 °F 7.9 °F 10.4 °F 68% 30.21 in 10.0 mi NNW 10.4 mph - N/A   Clear
9:15 AM 19.4 °F 8.6 °F 10.4 °F 68% 30.21 in 10.0 mi North 9.2 mph - N/A   Clear
9:35 AM 19.4 °F 6.0 °F 12.2 °F 74% 30.20 in 10.0 mi NNW 13.8 mph - N/A   Clear
9:55 AM 21.2 °F 7.8 °F 12.2 °F 68% 30.19 in 10.0 mi North 15.0 mph - N/A   Clear
10:15 AM 21.2 °F 8.9 °F 14.0 °F 74% 30.19 in 10.0 mi NNW 12.7 mph 17.3 mph N/A   Clear
10:35 AM 23.0 °F 12.4 °F 15.8 °F 74% 30.20 in 10.0 mi North 10.4 mph - N/A   Clear
10:55 AM 24.8 °F 12.9 °F 15.8 °F 69% 30.21 in 10.0 mi North 13.8 mph 18.4 mph N/A   Clear
11:15 AM 26.6 °F 14.7 °F 15.8 °F 64% 30.21 in 10.0 mi North 15.0 mph - N/A   Clear
11:35 AM 26.6 °F 15.2 °F 15.8 °F 64% 30.21 in 10.0 mi North 13.8 mph 19.6 mph N/A   Clear
11:55 AM 28.4 °F 18.0 °F 14.0 °F 55% 30.21 in 10.0 mi North 12.7 mph 19.6 mph N/A   Clear
12:15 PM 28.4 °F 18.5 °F 14.0 °F 55% 30.22 in 10.0 mi North 11.5 mph 19.6 mph N/A   Clear
12:35 PM 30.2 °F 20.8 °F 15.8 °F 55% 30.23 in 10.0 mi North 11.5 mph - N/A   Clear
12:55 PM 30.2 °F 20.2 °F 15.8 °F 55% 30.23 in 10.0 mi North 12.7 mph - N/A   Clear
1:15 PM 32.0 °F 24.8 °F 15.8 °F 51% 30.23 in 10.0 mi North 8.1 mph 16.1 mph N/A   Clear
1:35 PM 32.0 °F 23.6 °F 15.8 °F 51% 30.22 in 10.0 mi North 10.4 mph 17.3 mph N/A   Clear
1:55 PM 33.8 °F 23.9 °F 15.8 °F 48% 30.21 in 10.0 mi North 15.0 mph 20.7 mph N/A   Clear
2:15 PM 33.8 °F 25.8 °F 15.8 °F 48% 30.21 in 10.0 mi North 10.4 mph 24.2 mph N/A   Clear
2:35 PM 33.8 °F 24.8 °F 15.8 °F 48% 30.20 in 10.0 mi North 12.7 mph 23.0 mph N/A   Clear
2:55 PM 33.8 °F 24.8 °F 17.6 °F 52% 30.20 in 10.0 mi North 12.7 mph - N/A   Clear
3:15 PM 33.8 °F 25.3 °F 17.6 °F 52% 30.21 in 10.0 mi North 11.5 mph 17.3 mph N/A   Clear
3:35 PM 35.6 °F 27.5 °F 17.6 °F 48% 30.19 in 10.0 mi North 11.5 mph 16.1 mph N/A   Clear
3:55 PM 33.8 °F 24.3 °F 17.6 °F 52% 30.19 in 10.0 mi North 13.8 mph 19.6 mph N/A   Clear
4:15 PM 35.6 °F 27.5 °F 17.6 °F 48% 30.17 in 10.0 mi North 11.5 mph 20.7 mph N/A   Clear
4:35 PM 35.6 °F 28.6 °F 17.6 °F 48% 30.18 in 10.0 mi NE 9.2 mph - N/A   Clear
4:55 PM 35.6 °F 29.2 °F 17.6 °F 48% 30.19 in 10.0 mi NE 8.1 mph 19.6 mph N/A   Clear
5:15 PM 35.6 °F 26.2 °F 17.6 °F 48% 30.19 in 10.0 mi North 15.0 mph 19.6 mph N/A   Clear
5:35 PM 35.6 °F 28.6 °F 17.6 °F 48% 30.19 in 10.0 mi NNE 9.2 mph 19.6 mph N/A   Clear
5:55 PM 35.6 °F 28.0 °F 17.6 °F 48% 30.22 in 10.0 mi North 10.4 mph 19.6 mph N/A   Clear
6:15 PM 35.6 °F 29.9 °F 15.8 °F 44% 30.22 in 10.0 mi North 6.9 mph - N/A   Clear
6:35 PM 35.6 °F 28.6 °F 17.6 °F 48% 30.21 in 10.0 mi North 9.2 mph - N/A   Clear
6:55 PM 35.6 °F 28.0 °F 17.6 °F 48% 30.21 in 10.0 mi North 10.4 mph - N/A   Clear
7:15 PM 35.6 °F 29.2 °F 15.8 °F 44% 30.20 in 10.0 mi North 8.1 mph - N/A   Clear
7:35 PM 35.6 °F 29.2 °F 15.8 °F 44% 30.20 in 10.0 mi North 8.1 mph - N/A   Clear
7:55 PM 35.6 °F 29.2 °F 15.8 °F 44% 30.20 in 10.0 mi NNE 8.1 mph - N/A   Clear
8:15 PM 33.8 °F 28.6 °F 15.8 °F 48% 30.19 in 10.0 mi North 5.8 mph - N/A   Clear
8:35 PM 33.8 °F 27.0 °F 15.8 °F 48% 30.19 in 10.0 mi North 8.1 mph - N/A   Clear
8:55 PM 33.8 °F 26.4 °F 15.8 °F 48% 30.20 in 10.0 mi North 9.2 mph - N/A   Clear
9:15 PM 33.8 °F 27.0 °F 17.6 °F 52% 30.21 in 10.0 mi North 8.1 mph - N/A   Clear
9:35 PM 32.0 °F 24.8 °F 15.8 °F 51% 30.21 in 10.0 mi North 8.1 mph - N/A   Clear
9:55 PM 32.0 °F 27.5 °F 15.8 °F 51% 30.21 in 10.0 mi North 4.6 mph - N/A   Clear
10:15 PM 32.0 °F 25.6 °F 15.8 °F 51% 30.21 in 10.0 mi North 6.9 mph - N/A   Clear
10:35 PM 32.0 °F 24.2 °F 15.8 °F 51% 30.21 in 10.0 mi North 9.2 mph - N/A   Clear
10:55 PM 30.2 °F 22.6 °F 15.8 °F 55% 30.21 in 10.0 mi North 8.1 mph - N/A   Clear
11:15 PM 30.2 °F 21.9 °F 15.8 °F 55% 30.21 in 10.0 mi North 9.2 mph - N/A   Clear
11:35 PM 30.2 °F 23.4 °F 14.0 °F 51% 30.22 in 10.0 mi North 6.9 mph - N/A   Clear
11:55 PM 30.2 °F 23.4 °F 14.0 °F 51% 30.23 in 10.0 mi North 6.9 mph - N/A   Clear